TimeCST,TemperatureF,Dew PointF,Humidity,Sea Level PressureIn,VisibilityMPH,Wind Direction,Wind SpeedMPH,Gust SpeedMPH,PrecipitationIn,Events,Conditions,WindDirDegrees,DateUTC
12:00 AM,82,76,78,29.94,12,East,9.2,,,,,100,2012-05-04 06:00:00
12:00 AM,82.4,77.0,84,29.92,6.2,East,9.2,-,N/A,,Mostly Cloudy,100,2012-05-04 06:00:00
3:00 AM,80,76,84,29.89,12,East,5.8,,,,Scattered Clouds,90,2012-05-04 09:00:00
3:00 AM,80.6,75.2,84,29.89,6.2,East,5.8,-,N/A,,Partly Cloudy,90,2012-05-04 09:00:00
6:00 AM,80,77,88,29.92,12,Calm,Calm,,,,,,2012-05-04 12:00:00
6:00 AM,80.6,77.0,89,29.92,6.2,Calm,Calm,-,N/A,,Partly Cloudy,0,2012-05-04 12:00:00
7:00 AM,82.4,77.0,84,29.92,6.2,East,6.9,-,N/A,,Mostly Cloudy,90,2012-05-04 13:00:00
8:00 AM,86.0,77.0,74,29.95,6.2,East,11.5,-,N/A,,Mostly Cloudy,90,2012-05-04 14:00:00
9:00 AM,87,77,66,29.96,12,East,10.4,,,,Mostly Cloudy,80,2012-05-04 15:00:00
9:00 AM,86.0,77.0,74,29.95,6.2,East,10.4,-,N/A,,Mostly Cloudy,80,2012-05-04 15:00:00
10:00 AM,86.0,77.0,74,29.95,6.2,East,10.4,-,N/A,Rain,Light Rain Showers,90,2012-05-04 16:00:00
11:00 AM,87.8,77.0,70,29.95,6.2,East,11.5,-,N/A,,Scattered Clouds,80,2012-05-04 17:00:00
12:00 PM,86,77,69,29.94,12,East,11.5,,,,Partly Cloudy,80,2012-05-04 18:00:00
12:00 PM,86.0,77.0,74,29.93,6.2,East,11.5,-,N/A,,Scattered Clouds,80,2012-05-04 18:00:00
1:00 PM,86.0,77.0,74,29.92,6.2,East,11.5,-,N/A,,Scattered Clouds,80,2012-05-04 19:00:00
2:00 PM,86.0,77.0,74,29.90,6.2,East,10.4,-,N/A,,Mostly Cloudy,80,2012-05-04 20:00:00
3:00 PM,85,78,75,29.89,12,East,10.4,,,,,80,2012-05-04 21:00:00
3:00 PM,86.0,78.8,79,29.88,6.2,East,10.4,-,N/A,,Mostly Cloudy,80,2012-05-04 21:00:00
4:00 PM,84.2,77.0,79,29.88,6.2,East,9.2,-,N/A,,Mostly Cloudy,90,2012-05-04 22:00:00
5:00 PM,84.2,77.0,79,29.88,-9999.0,East,6.9,-,N/A,,Mostly Cloudy,100,2012-05-04 23:00:00
6:00 PM,83,78,79,29.90,12,East,6.9,,,,,100,2012-05-05 00:00:00
6:00 PM,84.2,77.0,79,29.89,6.2,East,6.9,-,N/A,,Scattered Clouds,100,2012-05-05 00:00:00
9:00 PM,82,77,79,29.94,12,ESE,3.5,,,,Mostly Cloudy,120,2012-05-05 03:00:00
9:00 PM,82.4,77.0,84,29.93,6.2,ESE,3.5,-,N/A,,Mostly Cloudy,120,2012-05-05 03:00:00